User: anonymous   Login
Location: Unspecified
(0.0000°N, 0.0000°E)
Time: 12:47:00
(UTC+00:00)
Language:

USA 227 - Orbit

View from above orbital plane
View from above orbital plane
View from above satellite
View from above satellite

Ground track
Ground track

The orbit data is extracted from the following two-line orbital elements,

1 37377U 11011A   19022.07214452 0.00000000  00000-0  00000-0 0    03
2 37377   4.5433   5.9603 0004269 173.6044 186.4148  1.00270000    09
Epoch (UTC): 22 January 2019 01:43:53
Eccentricity: 0.0004269
inclination: 4.5433°
perigee height: 35769 km
apogee height: 35805 km
right ascension of ascending node: 5.9603°
argument of perigee: 173.6044°
revolutions per day: 1.00270000
mean anomaly at epoch: 186.4148°
orbit number at epoch: 0

The dashed part of the orbit path shows where the satellite is in the earth's shadow,  

DLR